Portada
METAR-TAF:

METAR-TAF

Aeroports :

Benton Harbor, Michigan, Estats Units d'Amèrica

latitud: 42-07-43N, longitud: 086-25-42W, altitud: 196 m

Observació

L'informe es va fer fa 19 minuts, a les 00:53 UTC
Vent 7 kt del Nord/Nord-Est amb ràfegues de 14 kt
Temperatura -7°C
Humitat 67%
Pressió 1016 hPa
Visibilitat: 16.1 km
Cel cobert a una alçada de 2100 ft

METAR: KBEH 200053Z AUTO 03007G14KT 10SM OVC021 M07/M12 A3001 RMK AO2 SLP172 T10671117

Hora: 20:12 (01:12 UTC)


TAF: manca

Observacions i pronòstics meteorològics de més de 4000 aeroports (METAR i TAF).

Les estacions disponibles són els punts grocs i vermells al mapa.

Posi el ratolí al punt desitjat per veure el nom de l'estació.

Feu clic per veure les observacions i els pronòstics meteorològics.

Per canviar el mapa: feu clic els botons verds amb una creu de color negre per apropar; al botó verd amb un guió per allunyar la imatge; o en les fletxes verdes per a mapes adjacents.


METAR-TAF: